INMARSAT GX5

Last updated on Oct. 26, 2020, 5:52 a.m. UTC

1 44801U 19080B   20299.93035598  .00000063  00000-0  00000-0 0  9998
2 44801   0.0557  58.3992 0002017 156.7967 165.5021  1.00273424  3447
UTC
Height (km)
Latitude
Longitude
Inclination
Orbital Period
UTC large
Height (km)
Speed (km/s)
/
Latitude / Longitude
Inclination (degrees)
Orbital Period (minutes)
Azimuth
Elevation
Range (km)
Doppler Factor
iOS Compass Heading
iOS Angle

Next 30 passes for location: Hong Kong

Rise time Rise Azimuth (degrees) Set time Set Azimuth (degrees) Duration Max altitude (degrees)

No matching passes for this satellites